FW5298 Weather Reports


time (UTC)temp
F
wind
direction
speed
knots
gust
knots
rain 1hr
in
rain 24hr
in
rain mn
in
humidity
%
barometer
mb
20260906051035 56 252 1.7 5.2 0.00 0.22 0.00 88 1016.8
20260906050057 55 169 0.9 5.2 0.00 0.22 0.00 87 1016.6
20260906045031 55 270 0.9 6.1 0.00 0.22 0.00 87 1016.7
20260906044010 55 290 1.7 5.2 0.00 0.22 0.00 87 1017.0
20260906042516 55 258 2.6 5.2 0.00 0.22 0.00 87 1016.6
20260906041554 55 225 3.5 6.1 0.00 0.22 0.00 87 1016.1
20260906040502 55 219 3.5 5.2 0.00 0.22 0.00 87 1015.8
20260906035500 55 223 5.2 13.0 0.00 0.22 0.00 86 1015.7
20260906034458 55 217 5.2 9.6 0.00 0.22 0.00 86 1015.5
20260906033516 55 217 5.2 12.2 0.00 0.22 0.00 86 1015.5
20260906032454 55 220 5.2 10.4 0.00 0.22 0.00 86 1015.4
20260906031452 55 221 5.2 10.4 0.00 0.22 0.00 86 1015.4
20260906030450 55 223 5.2 7.0 0.00 0.22 0.00 86 1015.3
20260906024445 56 218 5.2 7.0 0.00 0.22 0.00 86 1015.2
20260906023445 56 226 5.2 7.8 0.00 0.22 0.00 86 1015.2
20260906022442 56 224 6.1 7.8 0.00 0.22 0.00 86 1015.3
20260906021501 56 225 6.1 7.8 0.00 0.22 0.00 86 1015.3
20260906020438 56 227 6.1 9.6 0.00 0.22 0.00 86 1015.3
20260906015436 56 225 6.1 7.8 0.00 0.22 0.00 86 1015.3
20260906014454 57 224 7.0 12.2 0.00 0.22 0.00 86 1015.3
20260906013433 57 230 5.2 7.8 0.00 0.22 0.00 86 1015.4
20260906012429 57 230 5.2 9.6 0.00 0.22 0.00 86 1015.4
20260906011428 57 235 4.3 12.2 0.00 0.22 0.00 85 1015.4
20260906010426 57 227 3.5 7.8 0.00 0.22 0.00 85 1015.4
20260906005423 58 223 4.3 13.9 0.00 0.22 0.00 85 1015.5
20260906004421 58 218 3.5 10.4 0.00 0.22 0.00 85 1015.5
20260906003419 58 238 1.7 7.8 0.00 0.22 0.00 85 1015.6
20260906002417 58 236 2.6 9.6 0.00 0.22 0.00 85 1015.7
20260906001416 58 242 1.7 7.8 0.00 0.22 0.00 85 1015.7
20260906000434 59 249 1.7 7.0 0.00 0.22 0.00 85 1015.8
20260905235411 59 244 1.7 6.1 0.00 0.22 0.00 85 1015.7
20260905234430 59 233 1.7 7.8 0.00 0.22 0.00 85 1015.8
20260905233408 59 235 3.5 7.8 0.00 0.22 0.00 85 1015.9
20260905232406 59 223 2.6 6.1 0.00 0.22 0.00 85 1016.0
20260905231404 59 223 3.5 10.4 0.00 0.22 0.00 85 1016.0
20260905230402 59 223 2.6 5.2 0.00 0.22 0.00 86 1016.1
20260905225400 59 232 3.5 6.1 0.00 0.22 0.00 86 1016.0
20260905224357 59 231 3.5 6.1 0.00 0.22 0.00 86 1016.0
20260905223356 59 223 3.5 6.1 0.00 0.22 0.00 86 1016.0
20260905222354 59 212 5.2 10.4 0.00 0.22 0.00 86 1015.9
20260905221353 59 210 3.5 8.7 0.00 0.22 0.00 86 1015.9
20260905220349 59 214 4.3 20.9 0.00 0.22 0.00 86 1015.7
20260905215407 59 207 4.3 11.3 0.00 0.22 0.00 86 1015.7
20260905214406 59 218 3.5 7.8 0.00 0.22 0.00 86 1015.7
20260905213345 59 218 3.5 7.8 0.00 0.22 0.00 86 1015.6
20260905212342 59 222 3.5 17.4 0.00 0.22 0.00 86 1015.4
20260905211339 59 270 2.6 7.8 0.00 0.22 0.00 85 1015.4
20260905210338 59 262 2.6 13.0 0.00 0.22 0.00 85 1015.3
20260905205356 60 205 3.5 9.6 0.00 0.22 0.22 85 1015.2
20260905204333 60 225 5.2 15.6 0.00 0.22 0.22 85 1015.1
20260905203332 60 230 3.5 9.6 0.00 0.22 0.22 85 1015.0
20260905202329 60 221 2.6 5.2 0.00 0.22 0.22 85 1014.9
20260905201327 60 235 2.6 9.6 0.00 0.22 0.22 85 1014.9
20260905200345 60 231 1.7 7.8 0.00 0.22 0.22 84 1015.0
20260905195324 60 297 1.7 7.0 0.00 0.22 0.22 84 1014.9
20260905185813 60 295 5.2 9.6 0.00 0.22 0.22 84 1014.9
20260905184810 60 295 5.2 9.6 0.00 0.22 0.22 84 1015.0
20260905183808 60 285 5.2 10.4 0.00 0.22 0.22 84 1014.8
20260905182807 60 274 6.1 13.0 0.00 0.22 0.22 84 1014.7
20260905181805 60 270 7.0 15.6 0.05 0.22 0.22 82 1014.5
20260905180837 61 261 7.8 12.2 0.21 0.22 0.22 82 1014.4
20260905175801 61 267 6.1 10.4 0.22 0.22 0.22 80 1014.3
20260905174759 61 261 5.2 10.4 0.22 0.22 0.22 78 1014.2
20260905173756 62 255 6.1 13.0 0.22 0.22 0.22 77 1014.2
20260905172755 64 265 6.1 11.3 0.22 0.22 0.22 73 1013.5
20260905171753 65 295 9.6 19.1 0.18 0.18 0.18 69 1013.6
20260905170751 66 311 5.2 11.3 0.01 0.01 0.01 67 1013.8
20260905165750 67 304 5.2 14.8 0.00 0.00 0.00 63 1014.1
20260905164747 68 306 6.1 18.2 0.00 0.00 0.00 60 1014.1
20260905163744 68 311 4.3 13.9 0.00 0.00 0.00 57 1013.1
20260905162742 69 303 3.5 7.0 0.00 0.00 0.00 57 1013.2
20260905161800 69 312 5.2 11.3 0.00 0.00 0.00 56 1012.8
20260905160758 69 309 5.2 11.3 0.00 0.00 0.00 55 1012.9
20260905155757 69 307 6.1 13.0 0.00 0.00 0.00 54 1012.7
20260905154734 71 311 6.1 20.9 0.00 0.00 0.00 52 1012.8
20260905153753 71 309 7.8 16.5 0.00 0.00 0.00 52 1012.9
20260905152751 72 313 6.1 14.8 0.00 0.00 0.00 52 1012.6
20260905151748 73 310 6.1 12.2 0.00 0.00 0.00 51 1012.4
20260905150727 74 310 7.0 19.1 0.00 0.00 0.00 50 1012.3
20260905145745 75 317 6.1 13.0 0.00 0.00 0.00 51 1012.0
20260905144723 76 312 7.0 17.4 0.00 0.00 0.00 50 1011.8
20260905143741 78 320 7.0 14.8 0.00 0.00 0.00 48 1011.7
20260905142719 80 311 7.0 12.2 0.00 0.00 0.00 46 1011.8
20260905141717 84 312 7.0 13.9 0.00 0.00 0.00 43 1011.4
20260905140715 86 319 6.1 11.3 0.00 0.00 0.00 44 1010.9
20260905135712 88 303 6.1 13.9 0.00 0.00 0.00 42 1010.7
20260905134730 89 293 4.3 13.9 0.00 0.00 0.00 41 1010.6
20260905133708 89 270 2.6 6.1 0.00 0.00 0.00 41 1010.2
20260905132706 90 270 1.7 6.1 0.00 0.00 0.00 40 1010.1
20260905131724 90 251 0.9 15.6 0.00 0.00 0.00 41 1010.0
20260905130703 89 317 0.9 3.5 0.00 0.00 0.00 42 1010.1
20260905125721 89 253 1.7 5.2 0.00 0.00 0.00 39 1010.2
20260905124658 90 251 2.6 5.2 0.00 0.00 0.00 39 1010.3
20260905123656 90 270 0.9 3.5 0.00 0.00 0.00 40 1010.3
20260905122655 90 270 1.7 14.8 0.00 0.00 0.00 39 1010.4
20260905121712 90 235 3.5 7.0 0.00 0.00 0.00 39 1010.4
20260905120650 89 270 0.9 1.7 0.00 0.00 0.00 42 1010.6
20260905115728 88 257 1.7 6.1 0.00 0.00 0.00 43 1010.6
20260905114707 87 270 1.7 10.4 0.00 0.00 0.00 43 1010.7
20260905113645 86 223 1.7 14.8 0.00 0.00 0.00 44 1010.9
20260905112643 86 257 1.7 4.3 0.00 0.00 0.00 43 1010.9
20260905111640 85 235 1.7 7.8 0.00 0.00 0.00 44 1010.8
20260905110640 85 243 1.7 5.2 0.00 0.00 0.00 43 1010.8
20260905105639 86 229 2.6 7.0 0.00 0.00 0.00 43 1010.7
20260905104635 86 253 1.7 13.9 0.00 0.00 0.00 43 1010.9
20260905103632 86 253 1.7 5.2 0.00 0.00 0.00 44 1011.0
20260905102630 85 254 1.7 5.2 0.00 0.00 0.00 43 1011.1
20260905101628 86 236 3.5 7.8 0.00 0.00 0.00 42 1011.1
20260905100627 86 244 2.6 5.2 0.00 0.00 0.00 42 1011.1
20260905095644 86 247 2.6 7.0 0.00 0.00 0.00 43 1011.2
20260905094622 85 251 1.7 6.1 0.00 0.00 0.00 44 1011.3
20260905093620 84 234 2.6 6.1 0.00 0.00 0.00 45 1011.1
20260905092627 84 222 3.5 18.2 0.00 0.00 0.00 45 1011.3
20260905085222 83 251 2.6 8.7 0.00 0.00 0.00 46 1011.5
20260905084221 82 243 1.7 5.2 0.00 0.00 0.00 47 1011.6
20260905083219 82 243 1.7 6.1 0.00 0.00 0.00 48 1011.7
20260905082217 81 223 2.6 7.8 0.00 0.00 0.00 49 1011.8
20260905081214 80 240 1.7 7.0 0.00 0.00 0.00 50 1011.9
20260905080212 80 239 1.7 6.1 0.00 0.00 0.00 50 1012.1
20260905075211 79 228 3.5 7.8 0.00 0.00 0.00 50 1012.1
20260905074209 79 234 2.6 7.8 0.00 0.00 0.00 51 1012.2
20260905073207 78 225 3.5 8.7 0.00 0.00 0.00 53 1012.2
20260905072204 77 234 1.7 5.2 0.00 0.00 0.00 54 1012.1
20260905071202 76 236 1.7 5.2 0.00 0.00 0.00 55 1012.1
20260905070201 75 226 2.6 13.9 0.00 0.00 0.00 57 1012.3
20260905065219 74 236 1.7 5.2 0.00 0.00 0.00 59 1012.5
20260905064208 73 243 1.7 5.2 0.00 0.00 0.00 61 1012.3
20260905063215 71 244 1.7 6.1 0.00 0.00 0.00 63 1012.3
20260905062152 69 242 1.7 5.2 0.00 0.00 0.00 66 1012.3
20260905061151 67 228 1.7 14.8 0.00 0.00 0.00 68 1012.3
20260905060208 65 237 1.7 7.0 0.00 0.00 0.00 69 1012.3
20260905055147 64 234 1.7 5.2 0.00 0.00 0.00 70 1012.3
20260905054145 64 228 1.7 15.6 0.00 0.00 0.00 70 1012.4
20260905053142 63 220 0.9 1.7 0.00 0.00 0.00 70 1012.3
20260905052140 63 228 0.9 8.7 0.00 0.00 0.00 70 1012.3